IRNSS-1C

Last updated on Wed Jul 02 2025 00:02:46 GMT+0000 (Coordinated Universal Time)

1 40269U 14061A 25181.92258567 -.00000162 00000+0 00000+0 0 9992 2 40269 5.6225 96.0085 0022327 8.3443 230.0274 1.00270446 39160
UTC large
Height (km)
Speed (km/s)
/
Latitude / Longitude
Inclination (degrees)
Orbital Period (minutes)
Azimuth
Elevation
Range (km)
Doppler Factor

Next 0 passes for location: London (51.5072 / 0.1276)

Sorry there are no passes over London.